Météo par heure à Kistarcsa

Ce jour, 4 Mars, Jeudi

Heure Température Précipitation Vent Pression Humidité
00:00 +7°C° 0 mm 1 m/s 749 mmHg 63%
01:00 +7°C° 0 mm 1 m/s 748 mmHg 64%
02:00 +7°C° 0 mm 1 m/s 748 mmHg 65%
03:00 +6°C° 0 mm 1 m/s 747 mmHg 66%
04:00 +6°C° 0 mm 1 m/s 747 mmHg 67%
05:00 +6°C° 0 mm 1 m/s 747 mmHg 68%
06:00 +6°C° 0 mm 1 m/s 746 mmHg 69%
07:00 +5°C° 0 mm 1 m/s 746 mmHg 70%
08:00 +6°C° 0 mm 2 m/s 746 mmHg 65%
09:00 +8°C° 0 mm 2 m/s 746 mmHg 60%
10:00 +9°C° 0 mm 2 m/s 745 mmHg 54%
11:00 +10°C° 0 mm 2 m/s 745 mmHg 51%
12:00 +11°C° 0 mm 3 m/s 745 mmHg 48%
13:00 +13°C° 0 mm 3 m/s 744 mmHg 45%
14:00 +12°C° 0 mm 3 m/s 744 mmHg 46%
15:00 +12°C° 0 mm 3 m/s 743 mmHg 47%
16:00 +13°C° 0 mm 2 m/s 743 mmHg 49%
17:00 +12°C° 0 mm 2 m/s 742 mmHg 52%
18:00 +10°C° 0 mm 2 m/s 742 mmHg 56%
19:00 +10°C° 0 mm 1 m/s 741 mmHg 59%
20:00 +9°C° 0 mm 2 m/s 741 mmHg 61%
21:00 +9°C° 0 mm 2 m/s 741 mmHg 62%
22:00 +8°C° 0 mm 2 m/s 741 mmHg 64%
23:00 +8°C° 0 mm 2 m/s 741 mmHg 65%

Demain, 5 Mars, Vendredi

Heure Température Précipitation Vent Pression Humidité
00:00 +7°C° 0 mm 2 m/s 740 mmHg 66%
01:00 +7°C° 0 mm 2 m/s 740 mmHg 68%
02:00 +7°C° 0 mm 2 m/s 740 mmHg 69%
03:00 +7°C° 0 mm 2 m/s 739 mmHg 70%
04:00 +7°C° 0 mm 2 m/s 739 mmHg 72%
05:00 +6°C° 0 mm 2 m/s 739 mmHg 75%
06:00 +6°C° 0 mm 2 m/s 739 mmHg 79%
07:00 +6°C° 0 mm 2 m/s 740 mmHg 82%
08:00 +7°C° 0 mm 3 m/s 740 mmHg 79%
09:00 +8°C° 0 mm 3 m/s 740 mmHg 75%
10:00 +8°C° 0 mm 4 m/s 741 mmHg 72%
11:00 +8°C° 0 mm 4 m/s 741 mmHg 70%
12:00 +8°C° 0 mm 4 m/s 741 mmHg 68%
13:00 +8°C° 0 mm 5 m/s 742 mmHg 66%
14:00 +8°C° 0 mm 5 m/s 742 mmHg 65%
15:00 +7°C° 0 mm 4 m/s 743 mmHg 63%
16:00 +7°C° 0 mm 4 m/s 743 mmHg 62%
17:00 +5°C° 0 mm 4 m/s 744 mmHg 70%
18:00 +4°C° 0 mm 4 m/s 745 mmHg 77%
19:00 +1°C° 0 mm 4 m/s 745 mmHg 84%
20:00 +1°C° 0.2 mm 4 m/s 746 mmHg 77%
21:00 +1°C° 0.2 mm 4 m/s 747 mmHg 69%
22:00 0°C° 0.2 mm 4 m/s 748 mmHg 62%
23:00 0°C° 0 mm 4 m/s 748 mmHg 60%

Après-demain, 6 Mars, Samedi

Heure Température Précipitation Vent Pression Humidité
00:00 +1°C° 0 mm 3 m/s 749 mmHg 58%
01:00 +1°C° 0 mm 3 m/s 749 mmHg 56%
02:00 +2°C° 0 mm 2 m/s 750 mmHg 58%
03:00 +1°C° 0 mm 2 m/s 750 mmHg 61%
04:00 +1°C° 0 mm 2 m/s 750 mmHg 64%
05:00 +1°C° 0 mm 2 m/s 751 mmHg 66%
06:00 +1°C° 0 mm 2 m/s 751 mmHg 69%
07:00 +1°C° 0 mm 1 m/s 752 mmHg 71%
08:00 +2°C° 0 mm 1 m/s 752 mmHg 62%
09:00 +3°C° 0 mm 1 m/s 753 mmHg 54%
10:00 +3°C° 0 mm 2 m/s 753 mmHg 45%
11:00 +4°C° 0 mm 2 m/s 753 mmHg 41%
12:00 +5°C° 0 mm 1 m/s 753 mmHg 38%
13:00 +6°C° 0 mm 1 m/s 753 mmHg 34%
14:00 +5°C° 0 mm 2 m/s 753 mmHg 35%
15:00 +5°C° 0 mm 2 m/s 753 mmHg 35%
16:00 +5°C° 0 mm 2 m/s 753 mmHg 36%
17:00 +4°C° 0 mm 2 m/s 753 mmHg 40%
18:00 +4°C° 0 mm 1 m/s 753 mmHg 45%
19:00 +4°C° 0 mm 1 m/s 753 mmHg 50%
20:00 +3°C° 0 mm 1 m/s 753 mmHg 52%
21:00 +3°C° 0 mm 1 m/s 754 mmHg 53%
22:00 +2°C° 0 mm 1 m/s 754 mmHg 55%
23:00 +2°C° 0 mm 1 m/s 753 mmHg 55%

7 Mars, Dimanche

Heure Température Précipitation Vent Pression Humidité
00:00 +2°C° 0 mm 1 m/s 753 mmHg 56%
01:00 +1°C° 0 mm 1 m/s 753 mmHg 57%
02:00 +1°C° 0 mm 1 m/s 753 mmHg 57%
03:00 +1°C° 0 mm 1 m/s 752 mmHg 57%
04:00 +1°C° 0 mm 1 m/s 752 mmHg 57%
05:00 +1°C° 0 mm 1 m/s 752 mmHg 56%
06:00 +1°C° 0 mm 1 m/s 752 mmHg 55%
07:00 +1°C° 0 mm 1 m/s 751 mmHg 54%
08:00 +1°C° 0 mm 2 m/s 751 mmHg 49%
09:00 +2°C° 0 mm 2 m/s 751 mmHg 43%
10:00 +2°C° 0 mm 3 m/s 751 mmHg 38%
11:00 +3°C° 0 mm 3 m/s 750 mmHg 36%
12:00 +4°C° 0 mm 3 m/s 750 mmHg 35%
13:00 +5°C° 0 mm 3 m/s 749 mmHg 34%
14:00 +5°C° 0 mm 3 m/s 749 mmHg 35%
15:00 +5°C° 0 mm 3 m/s 748 mmHg 36%
16:00 +5°C° 0 mm 3 m/s 747 mmHg 37%
17:00 +4°C° 0 mm 3 m/s 747 mmHg 41%
18:00 +4°C° 0 mm 2 m/s 747 mmHg 46%
19:00 +3°C° 0 mm 2 m/s 746 mmHg 50%
20:00 +2°C° 0 mm 2 m/s 746 mmHg 51%
21:00 +2°C° 0 mm 2 m/s 746 mmHg 52%
22:00 +2°C° 0 mm 2 m/s 746 mmHg 53%
23:00 +1°C° 0 mm 2 m/s 746 mmHg 54%

8 Mars, Lundi

Heure Température Précipitation Vent Pression Humidité
00:00 +1°C° 0 mm 2 m/s 745 mmHg 55%
01:00 +1°C° 0 mm 2 m/s 745 mmHg 56%
02:00 +1°C° 0 mm 2 m/s 745 mmHg 57%
03:00 -1°C° 0 mm 2 m/s 745 mmHg 58%
04:00 -1°C° 0 mm 2 m/s 744 mmHg 59%
05:00 -1°C° 0 mm 2 m/s 744 mmHg 60%
06:00 -1°C° 0 mm 2 m/s 744 mmHg 60%
07:00 -1°C° 0 mm 2 m/s 744 mmHg 61%
08:00 +2°C° 0 mm 2 m/s 744 mmHg 55%
09:00 +3°C° 0 mm 2 m/s 745 mmHg 50%
10:00 +5°C° 0 mm 2 m/s 745 mmHg 45%
11:00 +6°C° 0 mm 2 m/s 744 mmHg 43%
12:00 +7°C° 0 mm 3 m/s 744 mmHg 40%
13:00 +8°C° 0 mm 3 m/s 744 mmHg 38%
14:00 +7°C° 0 mm 3 m/s 744 mmHg 39%
15:00 +7°C° 0 mm 3 m/s 743 mmHg 39%
16:00 +7°C° 0 mm 3 m/s 743 mmHg 40%
17:00 +5°C° 0 mm 3 m/s 743 mmHg 44%
18:00 +5°C° 0 mm 2 m/s 743 mmHg 48%
19:00 +4°C° 0 mm 2 m/s 744 mmHg 52%
20:00 +3°C° 0 mm 2 m/s 744 mmHg 55%
21:00 +3°C° 0 mm 2 m/s 744 mmHg 57%
22:00 +3°C° 0 mm 1 m/s 745 mmHg 60%
23:00 +2°C° 0 mm 2 m/s 745 mmHg 63%

9 Mars, Mardi

Heure Température Précipitation Vent Pression Humidité
00:00 +1°C° 0 mm 2 m/s 745 mmHg 66%
01:00 0°C° 0 mm 3 m/s 745 mmHg 69%
02:00 0°C° 0 mm 3 m/s 745 mmHg 66%
03:00 -1°C° 0 mm 3 m/s 746 mmHg 64%
04:00 -1°C° 0 mm 3 m/s 746 mmHg 61%
05:00 -1°C° 0 mm 3 m/s 746 mmHg 60%
06:00 -1°C° 0 mm 3 m/s 747 mmHg 59%
07:00 -1°C° 0 mm 3 m/s 747 mmHg 59%
08:00 0°C° 0 mm 3 m/s 747 mmHg 54%
09:00 +1°C° 0 mm 3 m/s 748 mmHg 50%
10:00 +2°C° 0 mm 3 m/s 748 mmHg 45%
11:00 +3°C° 0 mm 2 m/s 748 mmHg 44%
12:00 +4°C° 0 mm 2 m/s 748 mmHg 43%
13:00 +5°C° 0 mm 2 m/s 748 mmHg 41%
14:00 +5°C° 0 mm 2 m/s 748 mmHg 41%
15:00 +5°C° 0 mm 2 m/s 747 mmHg 42%
16:00 +5°C° 0 mm 2 m/s 747 mmHg 42%
17:00 +5°C° 0 mm 1 m/s 747 mmHg 46%
18:00 +4°C° 0 mm 1 m/s 748 mmHg 50%
19:00 +3°C° 0 mm 1 m/s 748 mmHg 54%
20:00 +3°C° 0 mm 1 m/s 748 mmHg 54%
21:00 +2°C° 0 mm 1 m/s 748 mmHg 54%
22:00 +2°C° 0 mm 1 m/s 749 mmHg 53%
23:00 +2°C° 0 mm 1 m/s 749 mmHg 53%
Voir plus

Nous avons besoin de votre consentement

Meteoprog et ses fournisseurs de services peuvent stocker et accéder à des données personnelles telles que des cookies, des identifiants d'appareils ou d'autres technologies similaires sur votre appareil et traiter ces données pour personnaliser le contenu et les publicités, ainsi que pour fournir des fonctionnalités de médias sociaux et analyser le trafic.

  • Stocker et/ou accéder à des informations sur votre appareil

    Des cookies, des identifiants d'appareils ou d'autres informations peuvent être stockés ou accessibles sur votre appareil aux fins indiquées ci-dessus.

  • Annonces et contenus personnalisés, mesure des annonces et des contenus, connaissance de l'audience et développement de produits

    Les annonces et le contenu peuvent être personnalisés en fonction d'un profil. D'autres données peuvent être ajoutées pour mieux personnaliser les annonces et le contenu. Les performances des publicités et du contenu peuvent être mesurées. Il est possible d'obtenir des informations sur le public qui a vu les publicités et le contenu. Ces données peuvent être utilisées pour développer ou améliorer l'expérience de l'utilisateur, les systèmes et les logiciels.

En cliquant sur "J'accepte", vous autorisez l'utilisation de cookies, des identifiants d'appareils, des balises web ou d'autres technologies similaires. Vos paramètres peuvent être modifiés dans le navigateur de votre appareil.

Dans certains cas, des intérêts légitimes peuvent être invoqués plutôt qu'un consentement. Vous pouvez en savoir plus à ce sujet dans notre Politique de confidentialité et de cookies.